SL-8 DEB, 21115

Orbit data source: Space-Track

SL-8 DEB, 21115 is space debris in LEO originally from a launch on Tue, 12 Feb 1991 UTC launched from the Plesetsk Missile And Space Complex (PKMTR). Debris objects in space refer to the collection of defunct objects orbiting the Earth. Examples of debris include non-operational satellites, rocket bodies, and fragments generated from explosions, collisions, or faulty payload assembly.

Loading next visibility...
Identifier
21115, 1991-009M
Orbit
LEO
Country
Flag of CISCIS
Related business
Manufacturer
Unknown
Mission
Spacecraft
Bus & Motor
Unknown
Mass
Unknown
Launch date (UTC)
1991-02-12 (35 years ago)
Launch vehicle
Unknown
Launch site
Plesetsk Missile And Space Complex (PKMTR)
Object type
Payload
Rocket body
Debris
Shape & HBR
Unknown shape, 0.1 m
Radar Cross Section
Medium (>0.1 m² and <1 m²)

Expand to show TLE details & history
Last TLE update: 2 days ago

TLE from 2 days ago
0 SL-8 DEB
1 21115U 91009M   26171.40742262 -.00000046  00000-0 -30507-3 0  9993
2 21115  74.0391 292.7278 0184468  36.3916  23.9751 12.16942209569577
Epoch: 2026-06-20T09:46Z
TLE epoch observation values (Epoch: 2026-06-20T09:46:41.314Z)
Latitude
57.54399°
Longitude
-95.98405°
Altitude
1,481.033 km
Speed
7.188 km/s
True Right ascension
21h 17m 14s
True Declination
57° 24' 09"
Sunlit
Object was in daylight at epoch
Visualization orbit readout
Latitude
Unknown
Longitude
Unknown
Altitude
Unknown
Speed
Unknown
Apparent Right ascension
Unknown
Apparent Declination
Unknown
Sunlit
N/A
Visualization observer readout
Local Sidereal Time
02:14:51
Azimuth
Unknown
Elevation
Unknown
Doppler factor
Unknown
Orbital elements
Apogee altitude
1,751 km
Perigee altitude
1,456.519 km
Semi-major axis
7,981.896 km
Eccentricity
0.01845
Inclination
74.0391°
RAAN
292.7278°
Arg. of periapsis
36.3916°
True anomaly
24.85248°
Mean anomaly
23.9751°
Eccentric anomaly
24.41192°
Mean motion
3.04358 °/min
Orbital period
118.28 mins
BSTAR
-0.00030507
Loading maneuver chart data...
Computing Atmospheric mass density...
Loading historical data...
Loading historical data...
Loading historical data...
Loading historical data...
Loading historical data...
Loading historical data...
Loading historical data...

Documentation

Showing up to 5 results
|